Ellensburg, WA
on Thursday, December 6, 2012

Thursday
Previous Day Next Day
Daily Summary
 ActualAverage (KYKM)Record (KYKM)
Temperature
Mean Temperature °F / °C 30°F / -1°C  
Max Temperature 41°F / 5°C 38°F / 3°C 55°F / 12°C (1999)
Min Temperature 28°F / -2°C 22°F / -6°C 0°F / -17°C (1984)
Degree Days
Heating Degree Days 30 35  
Month to date heating degree days 205  
Since 1 July heating degree days 1738  
Cooling Degree Days 0 0  
Month to date cooling degree days 0  
Year to date cooling degree days 472  
Moisture
Dew Point 28°F / -2°C   
Average Humidity 82    
Maximum Humidity 89    
Minimum Humidity 60    
Precipitation
Precipitation 0.08 in / 2.03 cm 0.05 in / 1.27 cm 0.35 in / 0.89 cm (1987)
Month to date precipitation 0.30  
Year to date precipitation 7.02  
Snow
Snow 0.00 in / 0.00 cm 0.30 in / 0.76 cm 2.70 in / 6.86 cm (2001)
Month to date snowfall 1.7  
Year to date snowfall 13.9  
Since 1 July snowfall 5.3  
Snow Depth in / cm   
Wind
Wind Speed 2 mph / 3 km/h   
Max Wind Speed 6 mph / 10 km/h   
Max Gust Speed mph / km/h   
Visibility 6 miles / 10 kilometers   
Events Fog , Rain   

Key: T is trace of precipitation, MM is missing value
Source: NWS Daily Summary
Time(PST)TemperatureDew PointHumidity Pressure Visibility Wind DirectionWind SpeedGust SpeedPrecipitationEvents Conditions
12:53 AM 28.9°F / -1.7°C 24.1°F / -4.4°C 82% 30.17 in / 1021.6 hPa 10.0 miles / 16.1 kilometers Calm Calm - N/A   Scattered Clouds
1:53 AM 30.9°F / -0.6°C 26.1°F / -3.3°C 82% 30.16 in / 1021.2 hPa 10.0 miles / 16.1 kilometers Calm Calm - N/A   Overcast
2:53 AM 30.9°F / -0.6°C 26.1°F / -3.3°C 82% 30.15 in / 1021.0 hPa 10.0 miles / 16.1 kilometers East 3.5 mph / 5.6 km/h - N/A   Partly Cloudy
3:53 AM 28.9°F / -1.7°C 24.1°F / -4.4°C 82% 30.14 in / 1020.6 hPa 10.0 miles / 16.1 kilometers East 3.5 mph / 5.6 km/h - N/A   Clear
4:53 AM 30.0°F / -1.1°C 25.0°F / -3.9°C 82% 30.14 in / 1020.6 hPa 10.0 miles / 16.1 kilometers ENE 3.5 mph / 5.6 km/h - N/A   Clear
5:53 AM 30.0°F / -1.1°C 26.1°F / -3.3°C 85% 30.13 in / 1020.2 hPa 10.0 miles / 16.1 kilometers Calm Calm - N/A   Clear
6:53 AM 30.0°F / -1.1°C 25.0°F / -3.9°C 82% 30.12 in / 1019.9 hPa 10.0 miles / 16.1 kilometers Calm Calm - N/A   Clear
7:53 AM 30.0°F / -1.1°C 25.0°F / -3.9°C 82% 30.10 in / 1019.3 hPa 10.0 miles / 16.1 kilometers NE 5.8 mph / 9.3 km/h - N/A   Partly Cloudy
8:53 AM 30.0°F / -1.1°C 26.1°F / -3.3°C 85% 30.11 in / 1019.6 hPa 10.0 miles / 16.1 kilometers Calm Calm - N/A   Clear
9:53 AM 33.1°F / 0.6°C 28.0°F / -2.2°C 82% 30.11 in / 1019.6 hPa 10.0 miles / 16.1 kilometers Calm Calm - N/A   Partly Cloudy
10:53 AM 39.0°F / 3.9°C 30.0°F / -1.1°C 70% 30.10 in / 1019.1 hPa 10.0 miles / 16.1 kilometers SSW 3.5 mph / 5.6 km/h - N/A   Clear
11:53 AM 41.0°F / 5.0°C 28.0°F / -2.2°C 60% 30.07 in / 1018.1 hPa 10.0 miles / 16.1 kilometers Calm Calm - N/A   Partly Cloudy
12:53 PM 41.0°F / 5.0°C 28.0°F / -2.2°C 60% 30.05 in / 1017.4 hPa 10.0 miles / 16.1 kilometers Calm Calm - N/A   Overcast
1:53 PM 41.0°F / 5.0°C 28.9°F / -1.7°C 62% 30.02 in / 1016.6 hPa 10.0 miles / 16.1 kilometers Calm Calm - 0.00 in / 0.0 cm   Overcast
2:53 PM 41.0°F / 5.0°C 30.0°F / -1.1°C 65% 30.02 in / 1016.6 hPa 10.0 miles / 16.1 kilometers NW 3.5 mph / 5.6 km/h - N/A   Overcast
3:53 PM 37.9°F / 3.3°C 33.1°F / 0.6°C 83% 30.03 in / 1016.8 hPa 10.0 miles / 16.1 kilometers NW 4.6 mph / 7.4 km/h - 0.00 in / 0.0 cm Rain Light Rain
4:53 PM 37.0°F / 2.8°C 33.1°F / 0.6°C 86% 30.04 in / 1017.1 hPa 10.0 miles / 16.1 kilometers NW 4.6 mph / 7.4 km/h - 0.01 in / 0.3 cm Rain Light Rain
5:08 PM 35.6°F / 2.0°C 32.0°F / 0.0°C 87% 29.99 in / 1015.5 hPa 8.0 miles / 12.9 kilometers NW 3.5 mph / 5.6 km/h - 0.01 in / 0.3 cm Rain Light Rain
5:53 PM 36.0°F / 2.2°C 32.0°F / 0.0°C 86% 30.04 in / 1017.1 hPa 8.0 miles / 12.9 kilometers Calm Calm - 0.03 in / 0.8 cm Rain Light Rain
6:53 PM 35.1°F / 1.7°C 30.9°F / -0.6°C 85% 30.06 in / 1017.7 hPa 9.0 miles / 14.5 kilometers WSW 4.6 mph / 7.4 km/h - 0.03 in / 0.8 cm Rain Light Rain
7:00 PM 35.6°F / 2.0°C 30.2°F / -1.0°C 81% 30.01 in / 1016.1 hPa 7.0 miles / 11.3 kilometers WNW 3.5 mph / 5.6 km/h - 0.01 in / 0.3 cm Rain Light Rain
7:53 PM 33.1°F / 0.6°C 30.0°F / -1.1°C 89% 30.06 in / 1017.9 hPa 9.0 miles / 14.5 kilometers NNE 5.8 mph / 9.3 km/h - 0.01 in / 0.3 cm   Partly Cloudy
8:32 PM 32.0°F / 0.0°C 28.4°F / -2.0°C 87% 30.02 in / 1016.5 hPa 2.5 miles / 4.0 kilometers South 3.5 mph / 5.6 km/h - N/A   Scattered Clouds
8:36 PM 32.0°F / 0.0°C 28.4°F / -2.0°C 87% 30.02 in / 1016.5 hPa 1.0 miles / 1.6 kilometers South 4.6 mph / 7.4 km/h - N/A   Mostly Cloudy
8:39 PM 32.0°F / 0.0°C 28.4°F / -2.0°C 87% 30.02 in / 1016.5 hPa 0.5 miles / 0.8 kilometers Calm Calm - N/A Fog Fog
8:53 PM 30.9°F / -0.6°C 28.0°F / -2.2°C 89% 30.08 in / 1018.6 hPa 0.5 miles / 0.8 kilometers East 3.5 mph / 5.6 km/h - N/A Fog Light Freezing Fog
9:21 PM 30.2°F / -1.0°C 26.6°F / -3.0°C 86% 30.03 in / 1016.8 hPa 1.2 miles / 2.0 kilometers Calm Calm - N/A   Overcast
9:27 PM 30.2°F / -1.0°C 24.8°F / -4.0°C 80% 30.04 in / 1017.2 hPa 3.0 miles / 4.8 kilometers Calm Calm - N/A   Haze
9:37 PM 30.2°F / -1.0°C 26.6°F / -3.0°C 86% 30.04 in / 1017.2 hPa 1.5 miles / 2.4 kilometers Calm Calm - N/A   Overcast
9:39 PM 30.2°F / -1.0°C 26.6°F / -3.0°C 86% 30.04 in / 1017.2 hPa 0.8 miles / 1.2 kilometers Calm Calm - N/A   Mist
9:53 PM 30.9°F / -0.6°C 28.0°F / -2.2°C 89% 30.09 in / 1018.8 hPa 0.2 miles / 0.4 kilometers Calm Calm - N/A Fog Light Freezing Fog
10:53 PM 30.0°F / -1.1°C 26.1°F / -3.3°C 85% 30.09 in / 1018.9 hPa 0.2 miles / 0.4 kilometers SE 3.5 mph / 5.6 km/h - N/A Fog Light Freezing Fog
11:10 PM 30.2°F / -1.0°C 26.6°F / -3.0°C 86% 30.05 in / 1017.5 hPa 1.2 miles / 2.0 kilometers Variable 3.5 mph / 5.6 km/h - N/A   Overcast
11:27 PM 30.2°F / -1.0°C 26.6°F / -3.0°C 86% 30.04 in / 1017.2 hPa 0.8 miles / 1.2 kilometers Calm Calm - N/A   Mist
11:53 PM 28.9°F / -1.7°C 25.0°F / -3.9°C 85% 30.09 in / 1018.7 hPa 0.2 miles / 0.4 kilometers Calm Calm - N/A Fog Light Freezing Fog
Moon Phase
Dec. 06 Dec. 13 Dec. 20 Dec. 28 Jan. 04
Sunrise:07:33 AM (PST) Moon Rise:No Moon Rise/
Sunset:04:13 PM (PST) Moon Set:12:05 PM (PST)12/6

Copyright © 2014 The Weather Underground, Inc.